Wind_Speed
22 22 22 21 21 21 21 20 20 21 21 21 21 21 22 22 23 23 24 25 26 26 27 28 30 31 33 34 36 37 37 37 36 35 35 34 34 34 33 33 32 31 30
24 23 23 23 23 23 23 23 23 23 23 24 24 24 25 25 26 26 27 28 28 29 30 31 32 34 35 36 37 38 39 38 37 36 35 35 35 34 34 33 32 32 31
25 25 25 25 25 25 25 26 26 26 26 27 27 27 27 28 28 29 29 30 31 32 32 33 35 36 37 38 39 40 40 39 38 37 36 36 35 35 35 34 33 32 31
27 27 27 27 27 27 28 28 28 28 29 29 30 30 30 30 31 32 32 33 34 35 35 36 37 38 39 40 40 41 40 40 39 38 37 36 36 36 35 34 34 33 31
29 29 29 29 29 29 30 30 31 31 31 31 32 32 33 33 33 34 35 36 36 37 37 39 39 40 41 41 41 41 40 39 39 38 37 37 36 36 36 35 34 33 32
31 31 31 31 31 31 32 32 33 33 33 34 34 35 35 36 36 37 38 39 39 39 40 41 42 42 43 42 42 42 41 39 39 38 37 37 37 36 36 35 34 33 31
34 33 33 33 33 33 33 34 35 36 36 36 36 37 38 39 39 39 40 41 41 41 42 43 43 44 44 43 43 42 41 40 39 38 37 37 37 36 36 35 34 33 31
36 35 35 35 35 35 35 35 36 36 37 38 38 39 39 39 40 41 42 42 43 43 44 44 44 45 45 44 44 43 41 40 39 38 38 37 37 36 36 35 34 32 31
37 38 38 38 38 38 38 38 39 39 39 39 40 40 41 41 41 42 42 42 43 44 45 46 46 46 45 45 44 43 41 40 39 39 38 38 37 37 36 34 33 31 30
40 40 40 39 39 40 40 40 40 41 41 42 43 43 44 44 44 43 43 44 45 46 46 47 47 46 45 44 44 42 41 40 40 39 39 38 37 37 35 34 32 30 28
42 41 41 41 40 41 41 42 42 43 43 44 44 44 45 45 46 47 46 47 48 47 47 47 47 46 45 45 44 42 41 41 40 40 39 38 37 36 34 33 31 29 27
42 42 42 42 42 42 43 43 44 45 45 45 46 46 46 47 48 49 50 50 50 49 48 48 47 47 46 45 44 43 42 41 41 40 40 38 37 35 33 32 30 28 27
44 44 44 44 44 44 44 44 45 46 46 47 47 48 48 49 50 51 51 51 50 49 49 48 47 46 46 45 44 43 42 42 41 40 39 37 36 34 32 30 28 27 26
44 44 44 44 43 44 45 47 47 48 48 48 49 50 50 51 51 52 51 51 50 49 48 47 46 46 45 45 44 43 42 41 40 39 38 36 34 32 30 29 27 27 26
45 45 45 45 46 46 47 47 47 49 49 50 50 51 51 52 52 51 51 50 49 48 47 47 47 47 46 45 43 42 41 40 39 38 37 35 33 31 29 28 27 26 25
48 49 49 49 50 49 49 49 49 49 50 50 51 51 51 51 50 50 49 49 49 48 47 47 46 46 45 43 43 42 41 39 38 36 35 33 31 29 28 27 26 26 24
49 49 50 50 50 50 50 50 51 51 51 51 51 51 51 51 50 50 50 49 49 48 47 46 45 45 44 42 41 40 39 38 37 35 33 31 30 28 27 26 26 25 24
49 49 49 50 50 50 50 50 50 51 51 52 52 51 51 50 50 50 49 48 48 46 45 45 44 44 42 41 40 39 38 37 35 33 31 30 29 27 27 26 25 24 23
49 49 49 49 49 49 50 50 51 51 51 51 50 50 50 49 49 48 47 46 46 45 45 44 43 42 41 40 39 38 37 35 33 31 30 29 28 27 26 25 24 23 23
49 49 48 48 48 49 49 49 49 49 48 48 48 48 48 47 47 46 45 45 44 44 43 42 41 40 39 38 37 36 34 32 31 30 29 28 27 27 26 24 24 23 23
47 48 48 48 47 47 46 46 45 45 46 46 45 45 45 44 44 43 43 43 42 42 41 40 39 38 37 36 35 33 32 31 30 30 28 27 27 26 25 25 24 24 23
46 46 46 46 45 45 44 44 44 44 44 43 43 43 43 42 42 41 41 41 40 40 39 38 37 36 35 34 33 32 31 30 30 28 27 27 26 26 25 25 25 24 24
46 45 45 44 43 42 42 42 42 42 41 41 41 41 40 40 40 40 40 40 39 38 37 36 34 33 32 32 31 30 30 30 29 28 27 26 26 26 25 25 25 25 25
44 43 43 43 42 41 40 40 40 40 39 39 39 40 40 40 40 39 38 38 37 36 35 34 33 32 31 31 30 30 30 29 28 28 27 27 26 26 26 26 26 26 26
43 43 42 41 41 40 40 39 39 39 39 39 39 39 39 39 38 37 36 35 35 34 33 33 32 31 31 31 30 29 29 28 28 27 27 27 26 26 26 26 27 27 27
42 41 41 41 41 41 40 40 40 40 39 39 39 38 38 37 36 35 35 34 33 32 32 31 31 31 30 30 29 28 28 28 27 27 27 27 27 27 27 28 28 28 28
Wind_Direction
247 249 251 254 256 259 260 262 264 266 269 271 274 277 280 283 287 290 294 298 301 303 306 308 310 312 313 314 315 316 316 316 314 313 312 311 312 312 312 313 312 311 308
247 250 253 255 257 260 262 264 266 268 270 273 275 278 281 284 287 290 294 296 299 301 303 306 308 309 310 312 313 313 313 313 311 310 309 310 310 311 311 311 310 309 307
247 251 254 256 258 260 263 265 267 269 272 274 276 278 281 283 286 289 292 294 297 299 301 304 306 307 308 309 310 311 311 311 310 309 308 308 309 310 310 310 309 308 306
248 251 254 257 259 261 264 265 267 270 272 274 276 278 280 283 285 288 291 293 295 297 299 301 304 305 306 308 308 309 309 309 308 307 307 307 308 309 309 308 307 306 304
249 252 255 257 259 262 264 266 268 270 272 274 276 279 280 283 285 287 289 291 293 295 297 299 301 303 304 305 306 307 307 307 306 306 305 306 306 307 307 307 306 304 302
250 253 255 257 259 262 264 266 268 271 273 275 276 278 280 282 284 286 288 290 292 293 295 298 299 301 302 303 304 305 305 304 304 304 304 304 305 305 305 304 304 302 300
249 252 255 257 259 262 265 266 269 271 273 275 277 278 280 281 283 285 287 289 290 292 294 297 298 299 300 302 302 303 302 302 302 302 302 303 303 303 303 303 302 300 298
250 252 254 257 260 262 265 267 269 271 274 276 277 279 280 282 284 286 288 288 290 292 294 296 297 298 299 300 300 300 300 300 300 300 301 301 301 301 301 300 299 298 295
253 255 257 259 261 263 265 268 270 271 274 276 278 279 281 282 283 285 287 289 291 293 294 295 296 297 298 298 298 298 298 298 298 299 299 300 300 299 299 298 297 295 292
254 256 258 261 263 264 267 269 270 272 274 276 278 280 282 283 284 284 286 289 290 292 293 295 295 296 296 296 296 296 296 296 296 297 298 298 298 298 296 296 295 292 290
255 257 260 262 264 265 267 269 271 273 275 277 278 280 282 283 284 285 287 289 290 291 293 294 294 294 294 294 294 295 295 295 295 296 297 297 297 296 294 293 292 289 288
256 259 263 264 265 267 269 271 273 274 275 277 278 280 282 283 285 286 287 288 290 292 292 293 293 292 293 292 293 294 293 294 294 295 295 295 295 294 292 291 289 287 286
260 262 263 265 266 269 270 271 273 275 276 278 279 281 283 284 286 287 288 288 290 291 291 291 291 291 292 292 292 292 292 292 293 294 294 294 293 291 289 288 287 286 285
263 263 265 267 267 269 270 272 274 275 277 278 279 281 283 285 287 287 288 288 289 289 290 290 291 291 291 291 291 291 291 291 292 292 292 292 290 289 286 285 284 284 283
263 265 266 267 269 270 272 274 275 276 278 279 280 282 283 285 286 287 288 288 288 289 289 289 290 290 290 290 290 290 290 290 290 290 290 290 288 285 284 283 282 283 281
263 264 266 268 271 273 275 276 276 278 279 280 281 282 284 285 286 287 288 288 288 288 288 289 289 289 289 289 289 289 289 289 288 288 288 286 284 281 281 281 281 280 280
264 266 268 270 271 273 275 276 277 279 280 281 282 283 284 285 286 287 287 287 287 287 287 288 288 288 288 288 288 288 288 287 286 286 285 283 281 279 279 279 279 279 280
264 266 268 270 272 274 276 277 278 279 280 281 282 282 283 284 286 286 286 286 286 287 287 288 288 287 286 286 287 287 287 286 285 284 282 279 278 277 277 277 278 279 279
264 267 269 271 273 275 275 276 278 279 280 280 281 282 282 283 284 285 285 285 285 286 287 287 286 286 286 286 286 286 286 284 282 280 279 276 275 275 275 276 277 278 278
265 268 270 271 273 274 276 277 278 278 279 280 281 282 283 283 284 284 284 285 285 285 286 286 285 285 285 285 284 284 283 282 279 278 277 275 274 273 274 274 276 277 278
266 268 269 272 274 275 275 276 277 278 279 280 281 281 282 283 283 283 284 284 284 285 285 285 285 284 284 283 283 282 280 279 278 277 274 273 273 273 273 274 275 276 278
266 268 269 271 272 274 275 276 277 278 279 280 280 281 282 282 283 283 283 283 283 284 284 284 284 284 283 282 281 279 278 277 277 275 273 273 273 273 273 274 274 276 278
265 267 269 269 271 273 274 276 277 278 279 279 280 280 281 281 282 282 282 283 283 283 283 283 283 282 281 280 279 278 277 276 275 273 273 272 272 272 273 273 274 276 278
265 267 269 269 270 271 273 275 276 277 278 279 280 281 281 281 281 282 282 282 283 283 282 282 282 281 280 279 278 278 277 275 274 272 271 271 272 272 273 274 275 277 278
264 266 267 268 270 271 273 274 276 277 278 279 280 281 281 282 282 282 282 282 282 281 281 280 281 280 279 279 278 277 276 274 272 272 272 272 272 272 273 274 276 278 279
264 266 267 268 270 271 272 273 275 276 278 279 280 281 281 282 282 281 281 281 281 280 279 279 279 278 278 277 277 276 275 274 272 273 272 272 273 274 274 275 277 278 279
Height
5849 5851 5852 5853 5854 5855 5856 5857 5857 5857 5858 5858 5857 5857 5857 5856 5855 5854 5853 5852 5850 5849 5847 5844 5842 5839 5837 5833 5830 5827 5824 5820 5817 5813 5810 5807 5803 5800 5797 5794 5791 5788 5785
5844 5846 5847 5849 5850 5850 5851 5852 5852 5853 5853 5853 5852 5852 5851 5851 5850 5849 5848 5846 5845 5843 5841 5839 5836 5834 5831 5827 5824 5821 5818 5814 5811 5807 5804 5800 5797 5794 5791 5788 5785 5782 5780
5839 5841 5842 5843 5844 5845 5846 5846 5847 5847 5847 5847 5847 5847 5846 5845 5844 5843 5842 5841 5839 5837 5835 5833 5830 5827 5824 5821 5818 5814 5811 5807 5804 5801 5797 5794 5791 5788 5785 5782 5779 5776 5774
5833 5834 5836 5837 5838 5839 5840 5840 5841 5841 5841 5841 5841 5841 5840 5839 5838 5837 5836 5834 5833 5831 5829 5826 5824 5821 5817 5814 5811 5807 5804 5800 5797 5794 5791 5788 5784 5781 5778 5775 5773 5770 5768
5826 5828 5829 5831 5832 5833 5833 5834 5835 5835 5835 5835 5834 5834 5833 5833 5832 5831 5829 5827 5826 5824 5822 5819 5817 5814 5810 5807 5804 5800 5797 5793 5790 5787 5784 5781 5777 5774 5772 5769 5766 5763 5761
5819 5821 5822 5824 5825 5826 5826 5827 5828 5828 5828 5828 5828 5827 5826 5825 5824 5823 5822 5820 5818 5816 5814 5811 5809 5806 5803 5800 5796 5793 5789 5786 5783 5780 5777 5773 5770 5767 5764 5762 5759 5757 5754
5812 5813 5815 5816 5817 5818 5819 5820 5820 5820 5820 5820 5820 5820 5819 5818 5817 5815 5814 5812 5810 5808 5806 5803 5800 5797 5794 5791 5788 5785 5781 5778 5775 5772 5769 5766 5763 5760 5757 5755 5752 5750 5748
5803 5805 5807 5808 5809 5810 5811 5811 5812 5812 5812 5812 5812 5812 5812 5811 5809 5807 5805 5804 5802 5800 5797 5795 5792 5789 5786 5783 5780 5776 5773 5770 5767 5764 5761 5758 5755 5753 5750 5747 5745 5742 5741
5795 5797 5798 5800 5801 5802 5803 5803 5804 5804 5804 5804 5803 5803 5802 5802 5801 5800 5797 5795 5793 5791 5788 5785 5783 5780 5777 5774 5771 5767 5764 5761 5758 5756 5753 5750 5747 5745 5742 5740 5737 5735 5734
5787 5788 5789 5791 5792 5793 5794 5795 5795 5795 5795 5795 5794 5793 5793 5792 5791 5790 5789 5786 5784 5781 5779 5776 5773 5770 5767 5764 5761 5758 5755 5752 5750 5747 5744 5742 5739 5737 5734 5732 5730 5728 5727
5778 5779 5781 5782 5783 5784 5785 5785 5786 5786 5786 5785 5784 5784 5783 5781 5780 5779 5779 5777 5774 5772 5769 5766 5763 5760 5757 5755 5752 5749 5746 5743 5741 5738 5735 5733 5730 5728 5726 5724 5722 5721 5719
5769 5770 5771 5772 5773 5774 5775 5776 5776 5776 5775 5775 5774 5773 5772 5771 5770 5768 5767 5766 5764 5761 5758 5755 5752 5750 5747 5744 5742 5739 5737 5734 5731 5729 5726 5724 5722 5720 5718 5716 5714 5713 5712
5759 5760 5762 5763 5763 5764 5765 5765 5765 5765 5765 5764 5764 5763 5762 5760 5759 5757 5756 5754 5752 5750 5747 5744 5741 5739 5736 5734 5732 5729 5727 5724 5722 5719 5717 5715 5713 5711 5709 5708 5707 5706 5705
5749 5750 5751 5752 5753 5754 5754 5755 5755 5755 5754 5754 5753 5752 5751 5749 5747 5745 5744 5742 5741 5739 5737 5734 5730 5728 5725 5723 5721 5719 5716 5714 5712 5710 5708 5706 5704 5702 5701 5700 5699 5698 5698
5738 5740 5740 5741 5742 5743 5743 5743 5743 5743 5743 5743 5741 5740 5739 5737 5736 5734 5732 5730 5729 5727 5726 5723 5720 5717 5714 5712 5710 5708 5706 5704 5702 5700 5698 5697 5695 5694 5693 5692 5692 5691 5691
5728 5729 5729 5730 5731 5731 5732 5732 5732 5731 5731 5730 5729 5728 5727 5725 5724 5722 5720 5718 5716 5715 5714 5712 5709 5706 5703 5701 5699 5697 5695 5693 5692 5690 5689 5687 5686 5685 5685 5684 5684 5683 5683
5717 5717 5718 5719 5719 5720 5720 5720 5720 5719 5719 5718 5717 5716 5715 5714 5712 5710 5708 5706 5704 5703 5701 5700 5697 5695 5692 5690 5688 5687 5685 5683 5682 5681 5680 5679 5678 5677 5677 5677 5676 5676 5676
5705 5706 5707 5707 5708 5708 5708 5708 5708 5707 5707 5706 5705 5704 5703 5701 5700 5698 5696 5694 5692 5691 5689 5688 5686 5684 5682 5680 5678 5677 5675 5674 5673 5672 5671 5670 5670 5669 5669 5669 5669 5669 5669
5694 5695 5695 5696 5696 5696 5696 5696 5695 5695 5694 5693 5693 5692 5690 5689 5688 5686 5684 5682 5680 5679 5677 5676 5674 5672 5671 5669 5668 5667 5665 5664 5663 5663 5662 5662 5662 5661 5661 5661 5661 5661 5661
5682 5683 5684 5684 5684 5684 5684 5684 5684 5683 5682 5681 5681 5679 5678 5677 5675 5674 5672 5671 5669 5667 5666 5665 5663 5662 5660 5659 5658 5657 5656 5655 5655 5654 5654 5653 5653 5654 5654 5654 5654 5654 5654
5671 5671 5672 5672 5672 5673 5673 5672 5672 5671 5671 5670 5669 5668 5667 5665 5664 5662 5661 5659 5658 5656 5655 5654 5652 5651 5650 5649 5648 5647 5647 5646 5646 5646 5645 5646 5646 5646 5646 5646 5646 5647 5647
5659 5660 5660 5661 5661 5661 5661 5661 5660 5660 5659 5658 5658 5657 5655 5654 5653 5651 5650 5648 5647 5646 5645 5643 5642 5641 5640 5640 5639 5638 5638 5638 5638 5638 5638 5638 5638 5638 5638 5639 5639 5639 5639
5647 5648 5649 5649 5649 5650 5650 5650 5649 5649 5648 5648 5647 5645 5644 5643 5642 5641 5639 5638 5637 5635 5635 5634 5633 5632 5631 5631 5630 5630 5630 5630 5629 5630 5630 5630 5630 5630 5631 5631 5631 5631 5631
5636 5637 5637 5638 5638 5638 5638 5638 5638 5638 5637 5637 5636 5634 5633 5632 5631 5630 5629 5627 5626 5625 5625 5624 5623 5623 5622 5622 5622 5622 5621 5621 5621 5622 5622 5622 5622 5623 5623 5623 5623 5623 5623
5624 5625 5626 5626 5627 5627 5627 5627 5627 5627 5627 5626 5625 5624 5623 5622 5621 5619 5618 5617 5616 5616 5615 5615 5614 5614 5613 5613 5613 5613 5613 5613 5613 5614 5614 5614 5614 5614 5615 5615 5614 5614 5614
5613 5614 5615 5615 5616 5616 5616 5616 5616 5616 5616 5615 5614 5613 5612 5611 5610 5609 5608 5608 5607 5606 5606 5606 5605 5605 5605 5604 5604 5605 5605 5605 5605 5606 5606 5606 5606 5606 5606 5606 5606 5605 5605